Location: Baker University - Denious Residence Hall
(38.7793°N, 95.1884°W)
Time: 19:37:36
(UTC+00:00)

Daily predictions for brighter satellites

Satellite Brightness Start Highest point End
(mag) Time Altitude Azimuth Time Altitude Azimuth Time Altitude Azimuth
NOSS 0 Rocket 3.9 12:00:21 10° NNW 12:06:31 74° WSW 12:12:41 10° SSE
Meteor 2-12 Rocket 4.5 12:01:11 10° N 12:07:23 85° W 12:13:32 10° S
Cosmos 1140 Rocket 4.2 12:03:41 10° SW 12:08:19 32° WNW 12:12:58 10° N
ATLAS 5 CENTAUR R/B 2.8 12:05:18 10° W 12:08:21 21° NW 12:11:44 10° N
H-2A R/B 2.9 12:06:09 10° N 12:09:57 53° WNW 12:13:43 10° SSW
RESURS DK-1 2.3 12:07:44 10° SSW 12:11:50 77° WNW 12:15:58 10° NNE
Cosmos 1812 2.7 12:08:30 10° SSW 12:12:17 62° W 12:16:06 10° N
Cosmos 1328 Rocket 4.4 12:08:41 10° SW 12:12:22 27° WNW 12:16:05 10° NNW
Cosmos 1515 Rocket 3.7 12:09:25 10° SSW 12:13:36 49° W 12:17:51 10° N
CZ-2C R/B 3.7 12:10:34 10° SSW 12:13:42 19° SSE 12:16:50 10° ESE
NOSS 3-4 (A) 4.3 12:09:58 10° WSW 12:15:05 30° NW 12:20:31 10° NNE
NOSS 3-4 (C) 4.3 12:10:03 10° WSW 12:15:11 30° NW 12:20:38 10° NNE
Milstar 3 Cent rocket 3.5 12:13:06 10° WSW 12:16:46 22° S 12:20:37 10° SE
PSLV R/B 4.0 12:13:38 10° SSE 12:17:50 85° WSW 12:22:01 10° NNW
Meteor 1-31 Rocket 4.2 12:15:31 10° NNW 12:18:11 18° WNW 12:20:50 10° WSW
Cosmos 1242 Rocket 2.6 12:15:50 10° SSW 12:19:10 49° WNW 12:22:34 10° N
SeaSat 1 2.9 12:15:41 10° S 12:20:20 42° WSW 12:25:01 10° NW
Cosmos 2219 3.2 12:15:19 10° SSW 12:20:56 65° WNW 12:26:34 10° NNE
